User: anonymous
Location: Cincinnati Observatory Center
(39.1389°N, 84.4225°W)
Time: 19:32:11
(UTC-04:00)
Language:

COSMOS 2428 - Orbit

View from above orbital plane
View from above orbital plane
View from above satellite
View from above satellite

Ground track
Ground track

The orbit data is extracted from the following two-line orbital elements,

1 31792U 07029A   14244.88624619  .00000360  00000-0  22095-3 0  9494
2 31792 070.9670 028.8246 0007202 355.5880 117.3134 14.12408486370141
Epoch (UTC): 01 September 2014 21:16:11
Eccentricity: 0.0007202
inclination: 70.9670°
perigee height: 846 km
apogee height: 856 km
right ascension of ascending node: 28.8246°
argument of perigee: 355.5880°
revolutions per day: 14.12408486
mean anomaly at epoch: 117.3134°
orbit number at epoch: 37014

The dashed part of the orbit path shows where the satellite is in the earth's shadow,  

DLR